Regional Weather Roundup
Issued by NWS

Home | Current Version | Previous Version | Graphics & Text | Print | Product List | Glossary Off
Versions: 1 2 3 4 5 6 7 8 9 10 11 12 13 14 15 16 17 18 19 20 21 22 23 24 25 26 27 28 29 30 31 32 33 34 35 36 37 38 39 40 41 42 43 44 45 46 47 48 49 50

000
ASUS43 KMKX 281921
RWRWI

WISCONSIN REGIONAL WEATHER ROUNDUP
NATIONAL WEATHER SERVICE MILWAUKEE/SULLIVAN WI
200 PM CDT THU JUL 28 2016

NOTE: "FAIR" INDICATES FEW OR NO CLOUDS BELOW 12,000 FEET WITH NO
SIGNIFICANT WEATHER AND/OR OBSTRUCTIONS TO VISIBILITY.

WIZ001-002-006>008-014>016-023>028-282000-
NORTHWEST WISCONSIN

CITY           SKY/WX    TMP DP  RH WIND       PRES   REMARKS
SUPERIOR ARPT  MOSUNNY   64  58  80 E12       30.10S
ASHLAND        MOSUNNY   70  58  65 NE16      30.08F
HAYWARD        CLOUDY    72  55  55 NE9       30.06F
SIREN          CLOUDY    72  55  56 NE8       30.06S
CUMBERLAND     CLOUDY    70  55  60 N12       30.05F
RICE LAKE      CLOUDY    73  58  61 N13       30.04F
CHETEK         CLOUDY    74  60  61 N9        30.03F
LADYSMITH      CLOUDY    72  58  62 NE7       30.05S
EAU CLAIRE     CLOUDY    67  64  90 NE13      30.00F
MENOMONIE      CLOUDY    68  67  99 N8        30.02R
NEW RICHMOND   CLOUDY    73  59  62 N10G16    30.04S
OSCEOLA        CLOUDY    73  60  63 NE10      30.06S
$$

WIZ003>005-009-010-017-018-282000-
NORTH CENTRAL WISCONSIN

CITY           SKY/WX    TMP DP  RH WIND       PRES   REMARKS
MANITOWISH WTR CLOUDY    71  57  60 NE7       30.06S
ARBOR VITAE    CLOUDY    74  57  54 E3        30.05F
WOODRUFF       CLOUDY    74  57  54 E3        30.05F
RHINELANDER    CLOUDY    73  57  57 NE6       30.04F
EAGLE RIVER    CLOUDY    71  52  50 NE7       30.05F
LAND O LAKES   PTSUNNY   72  53  50 NE7       30.07S
PHILLIPS       CLOUDY    72  58  60 NE9       30.04S
TOMAHAWK       CLOUDY    71  58  63 NE5       30.04S
MEDFORD        DRIZZLE   60  60 100 NE8       30.04S
MERRILL        CLOUDY    65  60  81 SE3       30.04F
$$

WIZ029-030-035-036-043>047-282000-
CENTRAL WISCONSIN

CITY           SKY/WX    TMP DP  RH WIND       PRES   REMARKS
WAUSAU         LGT RAIN  61  59  93 E6        30.02S
MOSINEE        CLOUDY    64  61  88 NE9       30.03S
MARSHFIELD     HVY RAIN  63  60  90 NE14      30.00S FOG
STEVENS POINT  CLOUDY    64  60  89 NE9       30.01S
WAUPACA        CLOUDY    70  67  91 NE12      29.99F
WAUTOMA        CLOUDY    72  64  78 NE10G16   29.96F
WISC RAPIDS    CLOUDY    67  60  78 E9        30.00S
CAMP DOUGLAS   CLOUDY    68  64  88 NE9       29.95
$$

WIZ011>013-019>022-031-037>040-048>050-282000-
NORTHEAST WISCONSIN

CITY           SKY/WX    TMP DP  RH WIND       PRES   REMARKS
ANTIGO         DRIZZLE   62  59  92 CALM      30.05S
SHAWANO        LGT RAIN  65  62  90 NE12      30.01F
OCONTO         CLOUDY    63  63  99 N3        30.01S
STURGEON BAY   LGT RAIN  67  61  81 N6        30.01S
GREEN BAY      CLOUDY    67  64  90 NE9       29.99F
MANITOWOC      MOSUNNY   70  61  73 N13G20    29.97F
APPLETON       PTSUNNY   70  59  68 NE12      29.97S
CLINTONVILLE   DRIZZLE   64  63  94 NE8       30.01S
OSHKOSH        LGT RAIN  70  63  78 NE13      29.96F
$$

WIZ032>034-041-042-053>061-282000-
SOUTHWEST WISCONSIN

CITY           SKY/WX    TMP DP  RH WIND       PRES   REMARKS
LA CROSSE      LGT RAIN  68  64  87 N9        29.96R
SPARTA         CLOUDY    67  64  90 NE8       29.95F
VIROQUA        CLOUDY    69  69 100 NE7       29.94S
BOSCOBEL       HVY RAIN  72  70  93 NW6       29.91F FOG
PRAIRIE DU CHI CLOUDY    73  66  77 N7        29.92R
PLATTEVILLE    PTSUNNY   79  73  83 NW13      29.90R HX  82
$$

WIZ056-057-062-063-064-067-068-282000-
SOUTH CENTRAL WISCONSIN

CITY           SKY/WX    TMP DP  RH WIND       PRES   REMARKS
REEDSBURG      CLOUDY    71  67  88 NE7       29.94S
BARABOO/DELLS  CLOUDY    70  64  82 NE9       29.94S
LONE ROCK      CLOUDY    75  68  78 NE9       29.91F
MINERAL POINT  PTSUNNY   75  72  88 N9        29.91F
MADISON        CLOUDY    75  68  78 NE10      29.92F
MIDDLETON      CLOUDY    75  69  80 NE10      29.93R
WATERTOWN      CLOUDY    75  70  85 NE9       29.91F
MONROE         PTSUNNY   77  68  73 NE9       29.89F
JANESVILLE     PTSUNNY   68  66  94 N13       29.90R
$$

WIZ051-052-058>065-066-070>072-282000-
SOUTHEAST WISCONSIN

CITY           SKY/WX    TMP DP  RH WIND       PRES   REMARKS
MILWAUKEE      PTSUNNY   77  64  64 NE18      29.91F
WAUKESHA       MOSUNNY   72  64  78 NE10      29.94S
MILWAUKEE/TIMM PTSUNNY   75  61  60 NE12      29.94S
RACINE         MOSUNNY   77  68  73 NE12      29.92S
BURLINGTON     PTSUNNY   81  68  63 NE10      29.89F HX  84
KENOSHA        SUNNY     83  66  56 E12       29.90S HX  85
FOND DU LAC    PTSUNNY   74  62  66 E9        29.95F
SHEBOYGAN      CLOUDY    68  61  78 NE15      29.96S
WEST BEND      CLOUDY    72  63  73 NE9       29.95S
JUNEAU         CLOUDY    73  65  76 NE9       29.95S
$$

LSZ147-162-282000-
LAKE SUPERIOR

STATION/POSITION TIME  TEMP    WIND        PRES    WAVE
                       AIR SEA DIR/SP/G            HT/PER
                 (UTC) (F)     (DEG/KT/KT) (MB)    (FT/S)
W MID LAKE BUOY  1750   61 60   60/ 12/ 14 1019.1R   2/ 4
DEVILS ISLAND    1900   62      60/ 16/ 18 1019.6F
PORT WING        1740   62      30/ 12/ 12 1019.3S
SAXON HARBOR     1840   67      40/ 12/ 14 1018.3S
$$

LMZ867-665-643>646-282000-
LAKE MICHIGAN

STATION/POSITION TIME  TEMP    WIND        PRES    WAVE
                       AIR SEA DIR/SP/G            HT/PER
                 (UTC) (F)     (DEG/KT/KT) (MB)    (FT/S)
CHAMBERS ISLAND  1800   68      20/  8/ 10 1016.3S
N MID LAKE BUOY  1750   66 70   20/ 10/ 12 1015.4F   1
NORTHPORT PIER   1800   71      70/  6/  7 1015.9S
SISTER BAY       1821   71      10/ 11/ 15   N/A
ALGOMA LAKESHORE 1713           50/ 12/ 15   N/A
KEWAUNEE LAKESHO 1900   65      20/  6/  9 1014.8F
SHEBOYGAN LAKESH 1900   61     350/ 16/ 18 1014.6S
PORT WASHINGTON  1800   71      40/ 10/ 16 1014.6
ATWATER BUOY     1900   63 62  360/ 12/ 14 1014.9F
MILWAUKEE LAKESH 1910   68     360/ 15/ 18   N/A
S MID LAKE BUOY  1750   75 77   80/  4/  4 1012.0F   1/ 4
KENOSHA   LAKESH 1900   67      30/ 16/ 17 1012.2S
$$

TC  - TEMPERATURE IN CELSIUS
VSB - VISIBILITY IN STATUTE MILES
WCI - WIND CHILL INDEX
HX  - HEAT INDEX





USA.gov is the U.S. government's official web portal to all federal, state and local government web resources and services.